| time (UTC) | temp C | wind direction | speed KPH | gust KPH | rain 1hr cm | rain 24hr cm | rain mn cm | humidity % | barometer mb |
| 20260506143416 | 15 | 113 | 1.6 | 3.2 | 0.00 | 0.00 | 0.00 | 82 | 1008.8 |
| 20260506142416 | 16 | 0.0 | 1.6 | 0.00 | 0.00 | 0.00 | 81 | 1009.0 | |
| 20260506141416 | 17 | 90 | 1.6 | 1.6 | 0.00 | 0.00 | 0.00 | 80 | 1009.1 |
| 20260506140416 | 16 | 113 | 4.8 | 6.4 | 0.00 | 0.00 | 0.00 | 80 | 1009.0 |
| 20260506135416 | 16 | 0.0 | 3.2 | 0.00 | 0.00 | 0.00 | 82 | 1009.2 | |
| 20260506134416 | 16 | 0.0 | 1.6 | 0.00 | 0.00 | 0.00 | 83 | 1009.3 | |
| 20260506133416 | 15 | 158 | 3.2 | 4.8 | 0.00 | 0.00 | 0.00 | 84 | 1009.1 |
| 20260506132416 | 15 | 158 | 1.6 | 4.8 | 0.00 | 0.00 | 0.00 | 85 | 1009.0 |
| 20260506131457 | 15 | 0.0 | 1.6 | 0.00 | 0.00 | 0.00 | 85 | 1008.8 | |
| 20260506130416 | 15 | 135 | 3.2 | 4.8 | 0.00 | 0.00 | 0.00 | 83 | 1008.9 |
| 20260506125416 | 16 | 0.0 | 1.6 | 0.00 | 0.00 | 0.00 | 83 | 1008.9 | |
| 20260506124416 | 16 | 0.0 | 1.6 | 0.00 | 0.00 | 0.00 | 82 | 1009.0 | |
| 20260506123416 | 16 | 0.0 | 0.0 | 0.00 | 0.00 | 0.00 | 83 | 1009.2 | |
| 20260506122416 | 16 | 158 | 3.2 | 8.0 | 0.00 | 0.00 | 0.00 | 83 | 1009.5 |
| 20260506121436 | 16 | 0.0 | 0.0 | 0.00 | 0.00 | 0.00 | 85 | 1009.5 | |
| 20260506120416 | 15 | 158 | 1.6 | 3.2 | 0.00 | 0.00 | 0.00 | 86 | 1009.5 |
| 20260506115416 | 15 | 0.0 | 0.0 | 0.00 | 0.00 | 0.00 | 86 | 1009.5 | |
| 20260506114436 | 15 | 0.0 | 8.0 | 0.00 | 0.00 | 0.00 | 87 | 1009.3 | |
| 20260506113416 | 14 | 225 | 1.6 | 3.2 | 0.00 | 0.00 | 0.00 | 88 | 1009.3 |
| 20260506112415 | 14 | 0.0 | 4.8 | 0.00 | 0.00 | 0.00 | 89 | 1009.3 | |
| 20260506111416 | 13 | 0.0 | 1.6 | 0.00 | 0.00 | 0.00 | 90 | 1009.4 | |
| 20260506110416 | 13 | 0.0 | 0.0 | 0.00 | 0.00 | 0.00 | 91 | 1009.4 | |
| 20260506105415 | 13 | 0.0 | 0.0 | 0.00 | 0.00 | 0.00 | 91 | 1009.4 | |
| 20260506104435 | 13 | 0.0 | 0.0 | 0.00 | 0.00 | 0.00 | 92 | 1009.4 | |
| 20260506103416 | 12 | 0.0 | 0.0 | 0.00 | 0.00 | 0.00 | 92 | 1009.2 | |
| 20260506102416 | 12 | 0.0 | 0.0 | 0.00 | 0.00 | 0.00 | 92 | 1009.3 | |
| 20260506101415 | 12 | 0.0 | 0.0 | 0.00 | 0.00 | 0.00 | 92 | 1009.4 | |
| 20260506100435 | 12 | 0.0 | 0.0 | 0.00 | 0.00 | 0.00 | 92 | 1009.2 | |
| 20260506095436 | 12 | 0.0 | 0.0 | 0.00 | 0.00 | 0.00 | 92 | 1009.1 | |
| 20260506094415 | 11 | 0.0 | 0.0 | 0.00 | 0.00 | 0.00 | 92 | 1009.2 | |
| 20260506093416 | 11 | 0.0 | 0.0 | 0.00 | 0.00 | 0.00 | 92 | 1009.2 | |
| 20260506092415 | 11 | 0.0 | 0.0 | 0.00 | 0.00 | 0.00 | 91 | 1009.1 | |
| 20260506091416 | 11 | 0.0 | 0.0 | 0.00 | 0.00 | 0.00 | 91 | 1009.3 | |
| 20260506090415 | 11 | 0.0 | 0.0 | 0.00 | 0.00 | 0.00 | 91 | 1009.3 | |
| 20260506085415 | 11 | 0.0 | 0.0 | 0.00 | 0.00 | 0.00 | 91 | 1009.4 | |
| 20260506084435 | 11 | 0.0 | 0.0 | 0.00 | 0.00 | 0.00 | 91 | 1009.4 | |
| 20260506083415 | 11 | 0.0 | 0.0 | 0.00 | 0.00 | 0.00 | 90 | 1009.5 | |
| 20260506082415 | 11 | 0.0 | 0.0 | 0.00 | 0.00 | 0.00 | 90 | 1009.5 | |
| 20260506081435 | 11 | 0.0 | 0.0 | 0.00 | 0.00 | 0.00 | 90 | 1009.6 | |
| 20260506080415 | 12 | 0.0 | 0.0 | 0.00 | 0.00 | 0.00 | 90 | 1009.5 | |
| 20260506073116 | 12 | 0.0 | 0.0 | 0.00 | 0.00 | 0.00 | 89 | 1009.7 | |
| 20260506072116 | 12 | 0.0 | 0.0 | 0.00 | 0.00 | 0.00 | 89 | 1009.7 | |
| 20260506071116 | 12 | 0.0 | 0.0 | 0.00 | 0.00 | 0.00 | 89 | 1009.7 | |
| 20260506070117 | 12 | 0.0 | 0.0 | 0.00 | 0.00 | 0.00 | 88 | 1009.7 | |
| 20260506062116 | 12 | 0.0 | 0.0 | 0.00 | 0.00 | 0.00 | 87 | 1009.6 | |
| 20260506061116 | 12 | 0.0 | 0.0 | 0.00 | 0.00 | 0.00 | 87 | 1009.6 | |
| 20260506060116 | 13 | 0.0 | 0.0 | 0.00 | 0.00 | 0.00 | 87 | 1009.7 | |
| 20260506051116 | 14 | 0.0 | 1.6 | 0.00 | 0.00 | 0.00 | 84 | 1009.9 | |
| 20260506050116 | 14 | 0.0 | 0.0 | 0.00 | 0.00 | 0.00 | 84 | 1009.9 | |
| 20260506045116 | 15 | 0.0 | 0.0 | 0.00 | 0.00 | 0.00 | 83 | 1010.0 | |
| 20260506044116 | 15 | 0.0 | 0.0 | 0.00 | 0.00 | 0.00 | 83 | 1010.0 | |
| 20260506043116 | 15 | 0.0 | 0.0 | 0.00 | 0.00 | 0.00 | 83 | 1010.0 | |
| 20260506042136 | 15 | 0.0 | 1.6 | 0.00 | 0.00 | 0.00 | 83 | 1009.9 | |
| 20260506041136 | 15 | 0.0 | 0.0 | 0.00 | 0.00 | 0.00 | 82 | 1009.9 | |
| 20260506040116 | 15 | 0.0 | 1.6 | 0.00 | 0.00 | 0.00 | 82 | 1009.9 | |
| 20260506035115 | 15 | 0.0 | 0.0 | 0.00 | 0.00 | 0.00 | 81 | 1009.9 | |
| 20260506034116 | 15 | 0.0 | 0.0 | 0.00 | 0.00 | 0.00 | 81 | 1009.8 | |
| 20260506033116 | 15 | 0.0 | 0.0 | 0.00 | 0.00 | 0.00 | 80 | 1009.8 | |
| 20260506032115 | 15 | 0.0 | 0.0 | 0.00 | 0.00 | 0.00 | 80 | 1009.8 | |
| 20260506031116 | 15 | 0.0 | 0.0 | 0.00 | 0.00 | 0.00 | 79 | 1009.8 | |
| 20260506030116 | 15 | 0.0 | 0.0 | 0.00 | 0.00 | 0.00 | 78 | 1009.9 | |
| 20260506025116 | 15 | 0.0 | 1.6 | 0.00 | 0.00 | 0.00 | 78 | 1010.0 | |
| 20260506024116 | 16 | 0.0 | 0.0 | 0.00 | 0.00 | 0.00 | 77 | 1010.0 | |
| 20260506023136 | 16 | 0.0 | 1.6 | 0.00 | 0.00 | 0.00 | 77 | 1010.0 | |
| 20260506022116 | 16 | 248 | 4.8 | 8.0 | 0.00 | 0.00 | 0.00 | 76 | 1009.9 |
| 20260506021115 | 16 | 248 | 1.6 | 3.2 | 0.00 | 0.00 | 0.00 | 75 | 1009.8 |
| 20260506020135 | 16 | 225 | 1.6 | 6.4 | 0.00 | 0.00 | 0.00 | 75 | 1009.6 |
| 20260506015116 | 16 | 203 | 4.8 | 11.3 | 0.00 | 0.00 | 0.00 | 75 | 1009.5 |
| 20260506014137 | 16 | 225 | 1.6 | 4.8 | 0.00 | 0.00 | 0.00 | 75 | 1009.5 |
| 20260506013116 | 16 | 315 | 1.6 | 1.6 | 0.00 | 0.00 | 0.00 | 74 | 1009.2 |
| 20260506012115 | 16 | 225 | 4.8 | 6.4 | 0.00 | 0.00 | 0.00 | 74 | 1009.2 |
| 20260506011115 | 16 | 0.0 | 4.8 | 0.00 | 0.00 | 0.00 | 73 | 1009.1 | |
| 20260506010115 | 16 | 0.0 | 0.0 | 0.00 | 0.00 | 0.00 | 73 | 1008.8 | |
| 20260506005135 | 16 | 248 | 3.2 | 6.4 | 0.00 | 0.00 | 0.00 | 73 | 1008.7 |
| 20260506004115 | 17 | 225 | 3.2 | 8.0 | 0.00 | 0.00 | 0.00 | 73 | 1008.5 |
| 20260506003115 | 17 | 23 | 4.8 | 9.7 | 0.00 | 0.00 | 0.00 | 72 | 1008.4 |
| 20260506002115 | 17 | 270 | 1.6 | 4.8 | 0.00 | 0.00 | 0.00 | 72 | 1008.3 |
| 20260506001115 | 17 | 225 | 3.2 | 6.4 | 0.00 | 0.00 | 0.00 | 72 | 1008.2 |
| 20260506000116 | 16 | 203 | 4.8 | 8.0 | 0.00 | 0.00 | 0.00 | 72 | 1008.2 |
| 20260505235115 | 17 | 315 | 3.2 | 6.4 | 0.00 | 0.00 | 0.00 | 72 | 1007.9 |
| 20260505234115 | 17 | 338 | 3.2 | 4.8 | 0.00 | 0.00 | 0.00 | 71 | 1007.6 |
| 20260505233135 | 17 | 293 | 1.6 | 1.6 | 0.00 | 0.00 | 0.00 | 71 | 1007.6 |
| 20260505232135 | 17 | 270 | 1.6 | 3.2 | 0.00 | 0.00 | 0.00 | 70 | 1007.3 |
| 20260505231117 | 17 | 180 | 3.2 | 3.2 | 0.00 | 0.00 | 0.00 | 69 | 1007.3 |
| 20260505230117 | 18 | 158 | 3.2 | 9.7 | 0.00 | 0.00 | 0.00 | 68 | 1007.1 |
| 20260505225117 | 18 | 248 | 1.6 | 4.8 | 0.00 | 0.00 | 0.00 | 67 | 1006.9 |
| 20260505224117 | 18 | 225 | 3.2 | 3.2 | 0.00 | 0.00 | 0.00 | 67 | 1007.1 |
| 20260505223117 | 19 | 0.0 | 1.6 | 0.00 | 0.00 | 0.00 | 66 | 1007.3 | |
| 20260505222117 | 20 | 225 | 1.6 | 4.8 | 0.00 | 0.00 | 0.00 | 66 | 1007.2 |
| 20260505221117 | 20 | 225 | 3.2 | 6.4 | 0.00 | 0.00 | 0.00 | 65 | 1007.2 |
| 20260505220117 | 20 | 315 | 1.6 | 6.4 | 0.00 | 0.00 | 0.00 | 66 | 1007.3 |
| 20260505215117 | 20 | 225 | 1.6 | 1.6 | 0.00 | 0.00 | 0.00 | 65 | 1007.2 |
| 20260505214117 | 20 | 248 | 1.6 | 1.6 | 0.00 | 0.00 | 0.00 | 64 | 1007.3 |
| 20260505213117 | 20 | 225 | 3.2 | 8.0 | 0.00 | 0.00 | 0.00 | 65 | 1007.4 |
| 20260505212117 | 21 | 293 | 1.6 | 1.6 | 0.00 | 0.00 | 0.00 | 64 | 1007.2 |
| 20260505211118 | 20 | 248 | 1.6 | 3.2 | 0.00 | 0.00 | 0.00 | 64 | 1007.2 |
| 20260505210117 | 20 | 135 | 3.2 | 4.8 | 0.00 | 0.00 | 0.00 | 65 | 1007.3 |
| 20260505205117 | 20 | 270 | 3.2 | 3.2 | 0.00 | 0.00 | 0.00 | 66 | 1007.2 |
| 20260505204117 | 20 | 158 | 3.2 | 6.4 | 0.00 | 0.00 | 0.00 | 65 | 1007.2 |
| 20260505203117 | 20 | 135 | 3.2 | 8.0 | 0.00 | 0.00 | 0.00 | 66 | 1007.2 |
| 20260505202117 | 20 | 158 | 3.2 | 8.0 | 0.00 | 0.00 | 0.00 | 64 | 1007.3 |
| 20260505201117 | 21 | 45 | 3.2 | 6.4 | 0.00 | 0.00 | 0.00 | 65 | 1007.4 |
| 20260505200117 | 20 | 113 | 3.2 | 4.8 | 0.00 | 0.00 | 0.00 | 68 | 1007.4 |
| 20260505195117 | 20 | 135 | 3.2 | 4.8 | 0.00 | 0.00 | 0.00 | 68 | 1007.4 |
| 20260505194116 | 19 | 135 | 4.8 | 9.7 | 0.00 | 0.00 | 0.00 | 69 | 1007.6 |
| 20260505193117 | 20 | 158 | 4.8 | 9.7 | 0.00 | 0.00 | 0.00 | 68 | 1007.6 |
| 20260505192137 | 20 | 158 | 4.8 | 11.3 | 0.00 | 0.00 | 0.00 | 67 | 1007.9 |
| 20260505191117 | 20 | 113 | 6.4 | 9.7 | 0.00 | 0.00 | 0.00 | 68 | 1008.1 |
| 20260505190117 | 20 | 158 | 3.2 | 4.8 | 0.00 | 0.00 | 0.00 | 67 | 1008.3 |
| 20260505185137 | 20 | 158 | 4.8 | 6.4 | 0.00 | 0.00 | 0.00 | 69 | 1008.4 |
| 20260505184117 | 19 | 180 | 4.8 | 4.8 | 0.00 | 0.00 | 0.00 | 70 | 1008.5 |
| 20260505183117 | 19 | 113 | 4.8 | 8.0 | 0.00 | 0.00 | 0.00 | 72 | 1008.4 |
| 20260505182116 | 19 | 135 | 8.0 | 12.9 | 0.00 | 0.00 | 0.00 | 71 | 1008.4 |
| 20260505181116 | 19 | 158 | 3.2 | 4.8 | 0.00 | 0.00 | 0.00 | 71 | 1008.4 |
| 20260505180116 | 20 | 135 | 3.2 | 4.8 | 0.00 | 0.00 | 0.00 | 69 | 1008.5 |
| 20260505175117 | 20 | 135 | 6.4 | 11.3 | 0.00 | 0.00 | 0.00 | 68 | 1008.5 |
| 20260505174117 | 20 | 90 | 3.2 | 6.4 | 0.00 | 0.00 | 0.00 | 68 | 1008.6 |
| 20260505173117 | 20 | 158 | 6.4 | 11.3 | 0.00 | 0.00 | 0.00 | 66 | 1008.7 |
| 20260505172116 | 21 | 135 | 4.8 | 8.0 | 0.00 | 0.00 | 0.00 | 66 | 1008.7 |
| 20260505171116 | 22 | 135 | 6.4 | 9.7 | 0.00 | 0.00 | 0.00 | 63 | 1008.7 |
| 20260505170116 | 22 | 23 | 3.2 | 6.4 | 0.00 | 0.00 | 0.00 | 63 | 1008.9 |
| 20260505165137 | 21 | 135 | 4.8 | 9.7 | 0.00 | 0.00 | 0.00 | 65 | 1009.0 |
| 20260505164116 | 21 | 135 | 4.8 | 6.4 | 0.00 | 0.00 | 0.00 | 68 | 1009.0 |
| 20260505163116 | 21 | 135 | 6.4 | 9.7 | 0.00 | 0.00 | 0.00 | 67 | 1009.1 |
| 20260505162116 | 20 | 113 | 4.8 | 6.4 | 0.00 | 0.00 | 0.00 | 69 | 1009.3 |
| 20260505161116 | 20 | 113 | 4.8 | 6.4 | 0.00 | 0.00 | 0.00 | 70 | 1009.5 |
| 20260505160116 | 19 | 135 | 6.4 | 8.0 | 0.00 | 0.00 | 0.00 | 71 | 1009.6 |
| 20260505153116 | 22 | 135 | 6.4 | 8.0 | 0.00 | 0.00 | 0.00 | 62 | 1009.8 |
| 20260505152156 | 22 | 225 | 3.2 | 4.8 | 0.00 | 0.00 | 0.00 | 63 | 1010.0 |
| 20260505151116 | 21 | 135 | 1.6 | 3.2 | 0.00 | 0.00 | 0.00 | 63 | 1010.2 |
| 20260505150116 | 22 | 225 | 3.2 | 4.8 | 0.00 | 0.00 | 0.00 | 63 | 1010.2 |